This is the latest recevied weather packets stored in our database for station/object W8BS. If no packets are shown the sender has not sent any weather packets the latest 10 day(s).
| Time | Temp. | Humidity | Pressure | Rain* | Wind** | Luminosity | Snow |
|---|---|---|---|---|---|---|---|
| 1777902216 | 15° C | 52% | 1012.7 hPa | 0 mm | - | 611 W/m² | - |
| 1777901914 | 15.56° C | 51% | 1012.8 hPa | 0 mm | - | 496 W/m² | - |
| 1777901612 | 15° C | 51% | 1013.1 hPa | 0 mm | - | 422 W/m² | - |
| 1777901309 | 15° C | 52% | 1013.2 hPa | 0 mm | - | 418 W/m² | - |
| 1777901006 | 14.44° C | 52% | 1012.7 hPa | 0 mm | - | 416 W/m² | - |
| 1777900704 | 15° C | 52% | 1012.8 hPa | 0 mm | - | 402 W/m² | - |
| 1777900401 | 14.44° C | 52% | 1012.7 hPa | 0 mm | - | 356 W/m² | - |
| 1777900098 | 14.44° C | 53% | 1012.6 hPa | 0 mm | - | 357 W/m² | - |
| 1777899794 | 13.89° C | 53% | 1012.6 hPa | 0 mm | - | 337 W/m² | - |
| 1777899492 | 13.89° C | 55% | 1012.9 hPa | 0 mm | - | 322 W/m² | - |
| 1777899189 | 13.89° C | 54% | 1012.9 hPa | 0 mm | - | 302 W/m² | - |
| 1777898886 | 13.89° C | 54% | 1012.9 hPa | 0 mm | - | 286 W/m² | - |
| 1777898583 | 13.33° C | 55% | 1013 hPa | 0 mm | - | 275 W/m² | - |
| 1777898280 | 13.33° C | 56% | 1013.1 hPa | 0 mm | - | 245 W/m² | - |
| 1777897978 | 12.78° C | 56% | 1012.9 hPa | 0 mm | - | 244 W/m² | - |
| 1777897673 | 12.78° C | 58% | 1012.9 hPa | 0 mm | - | 69 W/m² | - |
| 1777897370 | 12.22° C | 58% | 1012.8 hPa | 0 mm | - | 64 W/m² | - |
| 1777897066 | 12.22° C | 57% | 1013 hPa | 0 mm | - | 63 W/m² | - |
| 1777896763 | 11.67° C | 60% | 1013.1 hPa | 0 mm | - | 63 W/m² | - |
| 1777896460 | 11.67° C | 60% | 1013 hPa | 0 mm | - | 59 W/m² | - |
| 1777896157 | 10.56° C | 61% | 1013.1 hPa | 0 mm | - | 58 W/m² | - |
| 1777895855 | 10° C | 64% | 1013 hPa | 0 mm | - | 56 W/m² | - |
| 1777895552 | 10° C | 63% | 1013.1 hPa | 0 mm | - | 55 W/m² | - |
| 1777895250 | 10° C | 65% | 1013.2 hPa | 0 mm | - | 77 W/m² | - |
| 1777894947 | 10° C | 66% | 1013 hPa | 0 mm | - | 72 W/m² | - |
* Rain latest hour (hover to see other rain measurements)
** Current wind speed in m/s (hover to see current wind gust speed)